Content
SEND FEEDBACK

Daily
Averages
Monthly
Summary
United States of America

ITHACA, NEW YORK


Home > North America > United States > New York
Elevation: 1094 feet     Latitude: 42 29N     Longitude: 076 28W

WEATHER
 
SELECT A DAY
Number of Records: 163,904;   Date Range: 1/1/95 - 12/24/14
 
SHARE

PRINT THIS DATA

[ ← Previous Day ]
WEATHER ALMANAC - MARCH 14, 2013
[ Next Day → ]
[ °C ]   °F
Weather ElementAverageHighLow
Temperature23.3 °F32 °F (2:56 pm)17.6 °F (6:06 am)
Dewpoint11.3 °F18.1 °F (1:56 am)5 °F (4:56 pm)
Humidity62.6 %86 % (9:18 am)33 % (4:56 pm)
Barometer29.97 in30.04 in (10:56 pm)29.90 in (2:41 am)
Wind Speed21.1 mph33.4 mph (3:56 pm)
Wind Gust42.6 mph (6:56 pm)
Weather ElementAverage
Visibility7.4 mi
Wind DirectionWNW (306.3 °)

Weather ElementTotal
Precipitation---
Heating Degree Days40.2 (Base 65)
Averaged from 32 records on March 14, 2013
WEATHER CONDITIONS BREAKOUT
WIND DIRECTION BREAKOUT
WEATHER BY HOUR - MARCH 14, 2013
[ °C ]   °F
Local TimeTemperatureDewpointHumidityBarometerVisibilityWind DirectionWind SpeedGust SpeedPrecipitationEventsConditions
12:56 AM24.1 °F14.0 °F65 %29.93 in10.0 miWNW (290°)10.4 mph0.00 inOvercast
1:56 AM23.0 °F18.1 °F82 %29.94 in8.0 miWest (280°)15.0 mph0.00 inSnowLight Snow
2:41 AM21.2 °F15.8 °F80 %29.90 in2.0 miWNW (300°)26.5 mph0.00 inSnowLight Snow
2:43 AM21.2 °F15.8 °F80 %29.91 in1.8 miWNW (290°)20.7 mph31.1 mph0.00 inSnowLight Snow
2:47 AM21.2 °F15.8 °F80 %29.90 in2.0 miWNW (290°)19.6 mph31.1 mph0.00 inSnowLight Snow
2:56 AM21.0 °F12.0 °F68 %29.95 in10.0 miNW (310°)18.4 mph28.8 mph0.00 inSnowLight Snow
3:56 AM19.0 °F11.1 °F71 %29.96 in6.0 miWest (280°)19.6 mph31.1 mph0.00 inSnowLight Snow
4:56 AM19.0 °F8.1 °F62 %29.96 in10.0 miNW (310°)29.9 mph36.8 mph0.00 inSnowLight Snow
5:56 AM19.0 °F9.1 °F65 %29.97 in10.0 miNW (310°)23.0 mph33.4 mph0.00 inSnowLight Snow
6:06 AM17.6 °F8.6 °F68 %29.93 in10.0 miNW (310°)18.4 mph28.8 mph0.00 inSnowLight Snow
6:23 AM17.6 °F10.4 °F73 %29.93 in10.0 miNW (310°)23.0 mph28.8 mph0.00 inOvercast
6:56 AM18.1 °F10.0 °F71 %29.99 in7.0 miWNW (300°)19.6 mph33.4 mph0.00 inOvercast
7:56 AM18.1 °F11.1 °F74 %30.01 in5.0 miNW (310°)18.4 mph29.9 mph0.00 inSnowLight Snow Showers
8:33 AM17.6 °F12.2 °F79 %29.97 in2.0 miNW (310°)16.1 mph24.2 mph0.00 inSnowLight Snow
8:56 AM18.1 °F13.1 °F81 %30.02 in4.0 miWNW (300°)23.0 mph29.9 mph0.00 inSnowLight Snow
9:18 AM17.6 °F14.0 °F86 %29.98 in2.0 miNW (310°)17.3 mph0.00 inSnowLight Snow
9:30 AM19.4 °F14.0 °F80 %29.98 in2.0 miWNW (300°)19.6 mph24.2 mph0.00 inSnowLight Snow
10:56 AM21.0 °F14.0 °F74 %30.03 in4.0 miNW (310°)17.3 mph26.5 mph0.00 inSnowLight Snow
11:56 AM24.1 °F16.2 °F72 %30.00 in2.0 miNW (310°)16.1 mph25.3 mph0.00 inSnowLight Snow
12:36 PM26.6 °F14.0 °F59 %29.94 in10.0 miWNW (300°)20.7 mph31.1 mph0.00 inMostly Cloudy
12:56 PM28.0 °F14.0 °F56 %29.99 in10.0 miWNW (300°)21.9 mph32.2 mph0.00 inMostly Cloudy
1:56 PM31.1 °F9.1 °F40 %29.97 in10.0 miNW (310°)28.8 mph38.0 mphScattered Clouds
2:56 PM32.0 °F8.1 °F37 %29.97 in10.0 miWNW (300°)29.9 mph35.7 mphScattered Clouds
3:56 PM32.0 °F6.1 °F34 %29.96 in10.0 miNW (310°)33.4 mph41.4 mphScattered Clouds
4:56 PM31.1 °F5.0 °F33 %29.97 in10.0 miNNW (330°)25.3 mph36.8 mphPartly Cloudy
5:56 PM29.1 °F6.1 °F38 %29.98 in10.0 miNW (310°)25.3 mph36.8 mphClear
6:56 PM28.0 °F5.0 °F38 %29.99 in10.0 miNW (310°)24.2 mph42.6 mphPartly Cloudy
7:56 PM27.1 °F6.1 °F41 %30.00 in10.0 miNW (320°)19.6 mph25.3 mphClear
8:56 PM26.1 °F10.0 °F51 %30.02 in10.0 miNW (320°)16.1 mph24.2 mphClear
9:56 PM25.2 °F10.0 °F53 %30.03 in10.0 miNW (320°)19.6 mph23.0 mphClear
10:56 PM25.2 °F11.1 °F55 %30.04 in10.0 miNW (320°)19.6 mph25.3 mphClear
11:56 PM25.2 °F12.0 °F58 %30.04 in10.0 miNW (320°)18.4 mph27.6 mphClear
Hourly data recorded from KITH, located miles away from Ithaca, New York







STORIES FROM OUR PARTNERS